Theta_e
341 349 356 356 356 355 355 356 354 354 353 353 353 353 353 353 353 353 353 354 354 354 354 353 352 351 351 352 353 353 353 353 352 352 351 350 350 345 349 346 344 343 350
345 350 357 356 356 356 355 354 354 353 353 353 352 352 352 352 352 352 353 353 353 353 352 351 350 349 348 347 348 350 350 350 351 351 352 353 350 349 348 345 345 343 346
347 350 353 357 356 355 355 354 354 354 353 352 351 351 351 350 351 351 351 352 352 351 351 350 349 347 346 344 344 346 347 348 349 348 340 340 345 353 348 348 347 346 345
349 349 352 357 357 355 355 354 354 353 353 352 351 351 351 350 350 351 351 351 350 349 349 349 347 345 344 344 344 345 346 346 347 341 323 337 346 351 350 350 348 347 346
347 348 350 357 357 355 354 354 354 353 353 352 351 351 352 352 352 352 352 351 349 347 347 347 346 343 343 343 346 348 348 347 346 332 317 334 345 351 353 351 349 349 347
343 343 351 357 357 355 354 354 353 353 352 351 351 351 352 352 352 352 352 352 349 345 346 347 348 348 346 347 348 349 349 348 346 322 322 325 346 353 354 352 351 351 349
342 342 351 358 357 356 354 354 353 353 352 352 352 352 352 352 353 353 353 352 351 348 347 349 349 350 350 349 349 349 349 347 335 327 327 325 340 350 354 353 352 352 351
341 344 348 355 357 357 356 356 355 355 353 352 353 352 352 353 353 353 354 355 353 348 347 348 349 349 349 349 349 349 348 350 339 331 326 323 342 349 352 353 354 352 351
341 345 347 347 352 355 357 357 356 355 354 354 354 352 352 352 354 352 353 354 354 350 347 347 348 349 349 345 345 344 343 338 325 323 322 325 345 350 351 350 350 352 352
342 344 343 343 347 345 349 356 356 355 355 354 354 353 350 349 352 354 352 351 353 351 349 349 347 344 342 341 340 341 337 331 321 322 325 333 347 349 351 350 350 353 353
341 340 342 343 342 345 347 350 355 353 354 355 352 349 345 336 337 341 344 350 351 350 349 342 339 337 331 330 332 331 328 317 317 319 320 336 348 350 349 351 351 349 349
336 338 339 342 342 344 348 345 347 347 347 342 336 332 331 334 337 342 344 347 351 339 336 332 331 329 324 316 316 321 314 314 315 316 317 333 341 344 350 350 349 347 348
334 335 337 338 341 343 342 343 345 343 340 335 331 331 331 335 330 325 323 322 319 326 319 319 318 316 314 314 313 312 313 313 313 315 318 331 334 340 346 350 347 346 348
330 335 335 337 338 340 340 343 342 340 336 331 330 330 327 330 330 324 321 318 318 317 317 316 316 315 314 314 312 312 311 312 312 313 315 328 332 334 342 347 348 346 347
335 337 338 338 336 338 339 341 340 337 334 330 330 330 330 328 329 325 319 318 318 317 318 317 314 314 313 313 312 311 312 312 313 313 312 325 327 331 334 341 346 345 344
332 333 335 340 341 340 339 339 339 335 332 330 330 330 331 328 329 325 319 319 318 317 316 314 314 313 311 311 312 312 313 311 311 311 313 314 324 325 329 333 340 344 344
332 334 332 336 338 340 340 338 335 335 335 331 331 330 331 330 329 326 318 318 318 316 316 315 313 312 311 312 310 312 311 310 311 310 311 311 314 321 325 330 335 342 342
330 329 330 332 336 337 339 338 338 337 333 332 331 331 333 334 330 324 318 317 319 317 316 314 312 311 310 310 309 310 308 309 310 310 311 311 312 313 319 327 332 342 342
331 331 328 327 327 335 335 335 334 334 332 332 332 331 332 332 330 324 319 319 320 317 314 314 312 310 309 308 309 310 309 308 308 311 309 311 310 313 315 324 334 341 340
326 330 332 334 335 335 334 333 332 331 331 330 329 327 329 330 329 321 321 320 320 315 314 312 309 309 308 307 310 309 306 307 307 306 309 313 313 315 317 321 322 327 337
330 328 332 328 331 333 333 331 329 327 329 328 327 328 327 328 328 324 321 319 319 316 312 310 309 306 305 306 303 303 304 305 305 306 313 313 312 313 316 318 319 320 323
327 329 325 324 321 326 333 333 332 331 329 328 328 327 326 326 326 324 320 318 314 313 310 310 310 305 308 306 306 299 297 301 303 305 309 313 311 313 312 314 317 318 320
323 325 325 323 322 328 332 332 330 328 327 323 321 319 318 319 318 317 318 316 314 310 311 310 311 310 308 307 305 302 297 294 298 301 309 312 312 310 310 311 313 315 319
321 323 325 325 324 326 323 328 327 323 319 317 318 317 317 317 316 316 314 313 310 313 313 312 314 311 308 304 304 308 306 306 302 296 301 307 311 310 309 307 310 310 317
324 323 326 328 327 324 322 324 326 320 319 318 316 314 314 314 316 316 313 315 312 312 313 313 312 308 308 306 306 305 303 303 306 304 298 301 305 306 309 309 310 313 317
323 324 324 324 324 322 325 325 319 316 314 312 312 311 311 311 315 315 315 313 311 309 312 311 309 307 309 309 307 305 305 304 304 304 302 302 300 303 304 305 310 314 316
Wind_Speed
6 7 15 14 13 12 11 10 10 10 9 9 9 9 8 8 8 8 7 8 7 8 8 9 9 9 9 10 11 11 10 9 7 7 6 3 2 2 4 5 6 4 7
12 8 15 14 13 12 11 10 10 9 8 8 7 7 6 6 6 6 6 5 6 6 6 6 7 8 8 9 10 10 10 11 10 10 9 7 4 5 6 4 4 4 9
13 9 12 15 14 13 12 11 10 9 8 7 6 5 4 4 4 4 3 3 3 3 4 5 6 7 8 9 10 9 10 10 11 12 13 5 4 9 8 7 6 6 7
12 8 8 16 14 14 12 11 10 9 8 6 5 5 4 3 3 2 2 1 1 1 1 3 4 5 6 9 10 9 10 10 11 13 7 6 5 10 11 11 6 6 7
10 7 8 16 14 14 13 12 10 9 8 7 6 5 4 4 5 5 4 3 3 2 2 2 2 3 5 7 9 9 10 10 11 8 7 7 4 8 12 12 11 8 6
6 5 10 15 14 15 14 12 11 9 8 7 5 5 6 7 7 7 7 6 5 2 3 4 4 4 5 6 8 10 10 10 9 4 6 8 5 4 12 12 11 11 9
9 7 8 16 16 15 14 12 10 9 7 6 6 7 6 6 7 7 7 6 5 2 4 6 6 7 7 8 9 11 12 13 7 5 4 5 6 6 8 10 11 11 10
11 9 7 15 15 13 12 11 10 8 7 8 8 7 6 7 7 7 7 7 6 5 7 9 10 9 11 12 11 12 14 12 6 6 4 3 5 9 9 8 9 10 11
9 9 8 7 11 13 10 9 8 8 8 9 6 6 5 7 8 7 7 8 8 6 7 8 8 8 10 12 12 12 14 13 6 5 7 2 4 8 9 10 12 12 12
6 8 7 7 6 6 7 13 11 10 9 8 9 8 4 5 8 7 8 7 10 6 6 7 8 9 9 9 11 14 15 14 4 6 5 4 6 10 11 10 10 12 10
6 5 5 5 4 6 7 8 11 13 11 10 8 6 4 4 6 7 7 8 9 7 5 9 9 9 10 11 12 12 12 4 6 3 4 12 12 12 12 9 11 11 10
11 8 6 5 6 5 6 5 5 5 4 4 1 3 3 4 5 7 7 11 4 6 8 7 8 9 9 4 4 8 3 5 4 5 3 16 14 16 12 11 12 12 14
2 2 7 7 7 8 7 4 2 3 3 1 3 3 2 3 2 1 1 3 3 5 2 3 5 4 6 4 4 4 5 5 3 4 7 15 17 15 15 13 14 17 15
4 7 9 9 6 6 5 3 3 2 2 2 2 1 3 2 2 2 2 1 3 2 2 2 3 3 4 5 5 5 5 4 3 3 5 15 16 17 15 15 17 17 16
17 19 18 5 6 7 6 3 3 4 4 2 3 4 4 4 3 1 1 1 2 3 2 3 3 3 3 5 5 5 6 5 5 3 3 14 17 17 16 17 19 18 18
9 11 10 14 10 11 6 5 4 2 2 2 4 4 6 4 3 3 4 4 4 2 2 2 1 1 2 3 5 6 6 5 5 6 4 5 16 17 18 16 18 20 20
4 4 11 10 14 14 16 3 2 3 2 4 5 5 6 5 4 4 4 4 4 4 3 2 3 1 1 2 3 4 5 5 6 6 5 5 7 15 17 18 16 21 21
11 4 9 8 17 25 8 4 4 5 5 6 5 4 6 5 5 4 4 4 3 3 3 2 1 2 2 2 3 4 4 5 7 8 6 6 7 6 12 18 20 19 19
10 3 2 9 18 23 6 5 4 4 4 3 4 5 6 5 4 4 3 4 5 3 0 1 1 1 1 3 4 4 5 6 6 7 8 9 9 7 5 14 17 12 15
7 7 5 7 10 5 4 4 3 3 2 3 4 4 5 5 4 3 5 5 3 2 2 0 1 1 1 2 3 4 4 6 4 5 5 6 5 4 4 6 5 2 8
5 6 8 7 9 5 3 1 3 2 4 3 3 6 6 6 4 5 4 5 3 4 1 2 0 1 2 1 2 3 4 5 5 5 3 3 6 6 7 7 5 5 3
8 6 4 2 6 6 3 2 1 4 3 2 1 3 3 4 4 3 5 4 2 2 3 2 1 2 2 1 2 1 4 5 3 4 3 2 4 5 7 8 6 5 4
4 4 7 7 8 7 5 3 1 2 3 4 4 4 5 6 6 5 3 2 2 2 2 1 3 2 1 4 4 3 2 3 3 3 1 2 3 4 3 7 6 6 4
4 5 7 3 3 3 6 7 7 3 2 3 4 4 5 5 5 4 4 4 2 1 3 3 2 3 2 5 2 4 4 3 4 4 3 3 1 2 6 3 3 4 3
5 6 7 7 8 8 9 9 6 4 4 3 3 4 4 5 5 5 3 2 2 2 4 5 4 3 4 3 3 1 3 3 6 6 3 3 2 2 2 4 4 4 4
6 7 8 7 5 7 8 8 6 7 4 3 3 4 4 3 4 5 5 5 5 4 4 4 4 4 4 4 4 4 5 4 2 3 3 2 2 2 2 3 1 4 5
Wind_Direction
200 178 173 163 150 140 134 126 118 110 104 100 96 93 92 86 81 77 74 67 63 61 54 45 39 37 33 28 26 24 26 27 14 355 347 337 152 98 9 115 117 121 110
144 162 169 161 153 149 142 135 130 125 123 119 117 110 101 94 88 78 66 59 56 55 53 51 44 36 32 33 28 22 21 13 4 351 337 312 259 159 118 128 127 135 125
139 158 166 166 160 157 153 152 147 143 142 136 126 111 95 79 71 62 60 51 47 52 56 39 34 29 25 24 24 18 17 9 360 353 343 311 228 196 161 147 153 146 134
143 158 167 169 163 165 163 165 160 157 156 150 147 143 128 114 94 58 5 335 308 343 47 46 17 19 17 12 9 9 11 7 355 354 343 328 252 199 168 151 168 166 153
150 161 178 170 168 171 172 170 168 170 169 173 167 171 166 174 185 185 196 241 274 303 339 6 1 355 3 2 350 352 358 360 350 356 343 328 315 195 179 165 169 180 177
142 158 191 171 176 178 179 176 177 183 182 187 189 205 208 206 213 214 216 208 218 256 304 326 335 340 351 354 342 340 345 345 344 334 329 319 321 256 188 177 176 186 184
162 177 192 181 185 185 182 182 185 194 196 199 211 227 233 243 246 246 243 254 269 304 343 339 338 347 7 359 350 340 344 347 340 307 306 309 285 260 221 197 190 192 186
173 181 188 190 192 189 184 188 195 202 200 210 220 234 259 271 269 261 268 275 286 322 349 337 336 351 1 359 5 358 354 357 3 320 309 289 253 260 220 205 209 214 192
175 185 187 191 197 190 188 199 206 216 221 226 241 244 245 265 269 266 269 278 293 316 333 315 333 359 18 360 17 9 3 23 20 337 330 314 233 236 230 206 207 204 206
177 192 196 191 188 171 196 204 205 214 223 231 235 246 247 284 292 300 289 288 285 299 316 336 30 36 30 19 18 6 9 9 4 347 329 315 247 229 237 222 222 220 218
202 208 192 189 191 194 202 209 208 212 219 233 240 254 291 308 304 283 265 259 264 303 8 50 36 30 28 20 16 18 13 0 357 7 324 317 293 262 245 217 214 205 200
203 197 192 198 197 208 216 218 206 224 217 215 183 309 302 287 297 291 287 254 252 64 75 46 35 28 33 24 10 21 2 355 358 340 339 336 316 275 253 234 217 203 204
219 212 202 192 203 205 221 197 199 214 230 226 92 277 329 310 296 20 40 64 93 81 67 36 18 30 29 29 19 7 346 345 339 326 331 336 327 320 254 231 222 217 208
175 209 186 202 209 200 230 196 225 243 237 273 116 244 190 220 334 352 33 76 138 155 106 73 45 25 21 12 8 345 338 332 325 319 324 339 331 319 283 236 225 221 211
21 21 3 23 346 292 233 182 201 229 222 243 238 204 194 201 216 175 265 289 222 183 136 52 44 19 24 5 346 336 327 321 318 319 309 332 328 321 311 268 236 234 226
48 35 20 328 26 281 268 213 208 233 263 255 264 252 230 201 201 196 225 222 209 154 163 133 139 104 18 351 329 324 320 313 313 308 295 302 309 307 307 300 259 234 230
56 18 0 352 332 289 238 180 218 259 256 257 257 251 258 234 241 219 225 231 222 209 175 160 152 143 17 329 306 324 313 314 306 291 282 281 287 294 290 290 275 247 234
76 77 129 75 269 275 245 201 202 188 213 238 243 262 256 258 231 233 245 249 243 226 165 171 119 12 340 347 325 322 305 305 303 303 296 288 281 276 281 288 280 242 221
101 198 148 212 236 247 201 173 185 206 208 255 245 245 256 253 245 239 250 264 256 266 250 143 70 105 296 326 321 305 307 300 303 310 304 299 281 274 280 290 268 210 201
199 174 251 218 218 233 190 97 75 20 331 248 240 251 287 283 233 227 260 262 245 283 305 306 181 205 239 279 304 296 289 285 300 298 294 319 333 313 20 358 29 28 163
190 240 237 4 341 351 348 203 41 247 249 282 283 305 291 283 268 282 265 258 282 250 216 209 100 321 291 111 352 322 294 281 290 300 312 350 359 1 26 30 12 33 47
287 305 231 228 313 321 318 359 249 185 194 225 293 273 296 293 307 282 298 312 308 336 329 297 165 90 302 47 256 70 320 323 344 306 301 353 17 358 24 32 3 15 28
288 337 314 331 303 324 351 347 320 349 351 12 15 8 7 30 40 43 38 56 110 163 253 243 257 218 298 268 204 165 291 251 326 312 274 356 35 1 12 20 337 1 354
282 323 262 296 320 269 309 11 13 340 41 37 353 334 340 4 19 29 55 67 37 309 323 307 290 251 157 255 311 223 258 257 226 302 314 286 53 19 356 324 329 292 298
322 305 335 337 344 335 340 10 335 8 33 356 328 343 355 13 22 38 53 346 282 256 246 230 232 237 235 252 243 273 261 258 240 237 254 296 311 271 303 306 330 316 321
317 343 346 350 318 346 359 24 57 65 53 27 358 12 2 354 13 7 354 339 331 313 291 300 295 274 259 245 234 233 234 245 237 241 247 227 261 300 318 325 317 308 336